AQI (26)

Current Conditions for Foresthill, CA. Mostly Cloudy, Dry   
Visibility: 5 miles
Cloud ht: 2,400 ft Foresthill Advisory text:

  Summary / Temperature 

Current Temperature
50.1°F
10.1°C
(24/hr Ago)
45.8°F
(Apparent temp)
47.0°F
Cool
Wind Chill Graphs
47.3°F 

50.8°F/ 10.4°C
 --- Virtual Temp: 52.4°F ---

 Temp Rate:

 24/hr Difference:

 Avg Running Temp:

 Todays High:

 Todays Low:

 Y-days High:

 Y-days Low:

 Todays WChill:

 Y-days WChill:

 Evapotranspiration:

+0.2°F/hr 

+4.3°F

49.7°F

50.2°F 12:45am

49.1°F 6:10am

58.4°F 1:10pm

44.2°F 6:12am

45.5°F 8:31am

44.2°F 6:12am

0.001 in

115' Above Ground

 Temperature:

 6'AGL VRS 115'AGL:

 Avg Running Temp:

 Humidity:

 Todays High:

 Todays Low:

 Y-days High:

 Y-days Low:

49.0°F 

-1.1°F

49.8°F

84% 

52.0°F 12:00am

49.0°F 5:25am

59.0°F 1:01pm

44.0°F 1:32am

Temp & Humidity Graphs

  Wind 

Wind Speed

 5.0 mph

Gusting to

 12.0 mph

Wind from SSE

150°  SSE

Light breeze

 Avg speed:

 Wind Run:

 Peak Gust:

  4.0 mph 

3.0 miles

  12.0 mph 8:27am

  Almanac  

Moon age: 29 days,6 hours,38 minutes,0%

New moon
0%
Illuminated
0 days in cycle

 Moonrise:

 Moonset:

 Sunrise:

 Sunset:

 Solar Noon:

6:39am

8:20pm

6:08am

7:49pm

1:01pm

2min 17s more daylight tomorrow 

  Solar Radiation 

(Current Solar)
  88 W/m2 (20%)
(Todays High)
 121 W/m2@8:28am
Feels like: 51.3°F in the sun

Rain

 Rain Today:

 Rain Rate (/hr):

 Rain last hour:

 Rain Yesterday:

 This Month:

 Season Total:

2 Days Since Last Dry Day

0.00 in

0.000 in

0.00 in

0.01 in

7.26 in

81.72 in

Updated Time

Updated: 4/26/17  8:34am

(Updated  sec ago)

Humidity & Barometer

 Humidity:

 Wetbulb:

 Dew Point:

 Barometer:

87% 

48.2°F 

46.4°F 

30.062 inHg 

 Baro Trend:  Steady 
Northern Calif
Preparedness
Fire 
Level 

    UV Index  

(Current UV)
0.5  Low
(Todays High) @ 8:26am
0.6   Low

National Weather Service Forecast

Today

Today: Chance Rain Showers
Chance Rain Showers
Tonight

Tonight: Chance Rain Showers then Partly Cloudy
Chance Rain Showers
Thursday

Thursday: Mostly Sunny
Mostly Sunny
Thursday
Night
Thursday Night: Mostly Clear
Mostly Clear
Friday

Friday: Sunny
Sunny
Friday
Night
Friday Night: Mostly Clear
Mostly Clear
Hi 58 °F Lo 45 °F Hi 64 °F Lo 43 °F Hi 65 °F Lo 44 °F

Foresthill Probe 2 Stats  
Foresthill Probe 2: is located on Thomas Street
at 3000 feet. The main Foresthill Weather site
is located on Melody ln at the 2860 foot elevation

Calm
49.1°F
9.5°C
Temp Rate:
+0.2°F
1.0 mph
Gusting to
2.0 mph
(Humidity)
91%
Wind from ESE
115°  ESE
Updated: 26/04/17 - 08:31:10
 Todays High: 49.4°F 01:58
 Todays Low: 48.2°F 06:29
 Rain Today: 0.00 in
 Season Total: 87.85 in

Foresthill Wx: Monthly,Yearly, Highs and Lows 

Foresthill  
This Weather Data is coming from the main Foresthill
Weather site located on Melody ln at the 2860 foot
elevation
Not Foresthill Probe 2
Weather Data
Month
  High
Month
  Low
Year
High
Year
Low
Temp 70.1°F
4/21/17
32.0°F
4/9/17
74.9°F
3/14/17
27.6°F
2/24/17
Humidity 94%
4/18/17
25%
4/4/17
100%
1/1/17
25%
4/4/17
Heat Index 70.3°F
4/21/17
37.8°F
4/9/17
74.6°F
3/14/17
32.5°F
2/24/17
Wind Chill 70.1°F
4/21/17
21.7°F
4/9/17
74.9°F
3/14/17
14.0°F
2/24/17
Wind Gust 43 mph
4/7/17
0 mph
4/1/17
48 mph
1/10/17
0 mph
1/1/17
Barometer 30.33 in
4/20/17
29.73 in
4/6/17
30.69 in
1/27/17
29.29 in
2/17/17
ET 0.18 in
4/21/17
0.00 in
4/1/17
0.18 in
4/21/17
0.00 in
1/1/17
Dew Point 52.5°F
4/2/17
27.3°F
4/4/17
56.2°F
3/15/17
22.7°F
1/27/17
Pacific Satellite US Radar Satellite Imagery Sacramento,CA.  (click to enlarge)
NWS Weather Forecast - Summary
Updated: Wed Apr 26, 2017 - 3:30am (PDT)
Current Interstate Highway Conditions for I-80 & US-50

[I 80: IN THE SAN FRANCISCO BAY AREA - SOLANO CO]
no traffic restrictions are reported for this area.

[I 80: IN THE NORTHERN CALIFORNIA AREA & SIERRA NEVADA]
no traffic restrictions are reported for this area.

[US 50: IN THE SACRAMENTO VALLEY & THE LAKE TAHOE BASIN]
is reduced to 1 lane in each direction from 3 mi east of pollock pines to 1 mi west of riverton /at bridal veil falls rd/ (EL DORADO CO) - due to a slipout - motorists are subject to delays
NWS Weather Forecast: Today and Tonight (Updated: Wed, 26-Apr-2017 2:36am PDT)
Today

Today: Chance Rain Showers
Chance Rain Showers

Hi 58 °F
NWS forecast: A chance of rain showers. Mostly cloudy, with a high near 58. South wind around 10 mph. Chance of precipitation is 50%. New rainfall amounts between a tenth and quarter of an inch possible.
Tonight

Tonight: Chance Rain Showers then Partly Cloudy
Chance Rain Showers

Lo 45 °F
NWS forecast: A chance of rain showers before 11pm. Partly cloudy, with a low around 45. Southeast wind 3 to 8 mph. Chance of precipitation is 40%. New rainfall amounts less than a tenth of an inch possible.
YR.NO 10 Day Weather forecast
Last update: 04/26/2017 @ 00:35
Next update: 04/26/2017 @ 13:00
Provided by: 22
      Temperature Precipitation Pressure Wind  
Today
04/26/2017
06:00 12:00 46°F   30.02 inHg Light air from east-southeast 3 mph
  12:00 18:00 50°F 0.21 in 30.04 inHg Gentle breeze from south 10 mph
  18:00 00:00 50°F 0.04 in 29.96 inHg Gentle breeze from south-southwest 10 mph
    (Click to enlarge)
meteogram

    Forecast for next 9 days

      Temperature Precip Pressure Wind  
Thursday
04/27/2017
00:00 06:00 48°F   30.02 inHg Light air from north-northeast 2 mph
  06:00 12:00 39°F   29.99 inHg Light breeze from east-northeast 4 mph
  12:00 18:00 59°F   30.01 inHg Gentle breeze from west-northwest 8 mph
  18:00 00:00 55°F   29.95 inHg Light breeze from west-northwest 5 mph
      Temperature Precip Pressure Wind  
Friday
04/28/2017
00:00 06:00 37°F   29.98 inHg Light air from east-northeast 3 mph
  06:00 12:00 37°F   29.97 inHg Gentle breeze from east-northeast 9 mph
  12:00 18:00 63°F   29.96 inHg Gentle breeze from west-northwest 9 mph
  17:00 23:00 63°F   29.94 inHg Gentle breeze from west-northwest 11 mph
  23:00 05:00 41°F   30.03 inHg Gentle breeze from northeast 8 mph
      Temperature Precip Pressure Wind  
Saturday
04/29/2017
05:00 11:00 41°F   30.06 inHg Light breeze from north-northeast 7 mph
  11:00 17:00 63°F   30.04 inHg Light breeze from northeast 7 mph
  17:00 23:00 68°F   30.00 inHg Gentle breeze from west-northwest 8 mph
  23:00 05:00 46°F   30.06 inHg Gentle breeze from east-northeast 9 mph
      Temperature Precip Pressure Wind  
Sunday
04/30/2017
05:00 11:00 41°F   30.06 inHg Gentle breeze from east-northeast 8 mph
  11:00 17:00 68°F   30.11 inHg Light breeze from southwest 4 mph
  17:00 23:00 68°F   30.04 inHg Light breeze from west-southwest 5 mph
  23:00 05:00 46°F   30.06 inHg Light breeze from east-northeast 5 mph
      Temperature Precip Pressure Wind  
Monday
05/01/2017
05:00 11:00 45°F   30.01 inHg Gentle breeze from east-northeast 8 mph
  11:00 17:00 73°F   30.00 inHg Light breeze from west-northwest 5 mph
  17:00 23:00 73°F   29.92 inHg Gentle breeze from west-northwest 10 mph
  23:00 05:00 50°F   29.92 inHg Light breeze from east-northeast 5 mph
      Temperature Precip Pressure Wind  
Tuesday
05/02/2017
05:00 11:00 52°F   29.90 inHg Gentle breeze from east-northeast 9 mph
  11:00 17:00 73°F   29.90 inHg Light breeze from east-northeast 6 mph
  17:00 23:00 77°F   29.84 inHg Light breeze from west-northwest 4 mph
  23:00 05:00 63°F   29.88 inHg Gentle breeze from east-northeast 10 mph
      Temperature Precip Pressure Wind  
Wednesday
05/03/2017
05:00 11:00 59°F   29.88 inHg Moderate breeze from east-northeast 13 mph
  11:00 17:00 79°F   29.91 inHg Light breeze from south-southwest 4 mph
  17:00 23:00 77°F   29.92 inHg Light breeze from west-southwest 5 mph
  23:00 05:00 55°F   29.99 inHg Light air from east-northeast 3 mph
      Temperature Precip Pressure Wind  
Thursday
05/04/2017
05:00 11:00 52°F   29.98 inHg Light breeze from east-northeast 6 mph
  11:00 17:00 77°F   30.02 inHg Light breeze from southwest 5 mph
  17:00 23:00 75°F   29.98 inHg Light breeze from southwest 5 mph
  23:00 05:00 54°F   29.99 inHg Light breeze from east-northeast 4 mph
      Temperature Precip Pressure Wind  
Friday
05/05/2017
05:00 11:00 48°F   29.93 inHg Light breeze from east-northeast 6 mph
  11:00 17:00 73°F   29.91 inHg Light breeze from west 6 mph
How Close Are We To this Month's Temperature Record ?
Updated Wednesday, Apr 26, 2017- 8:30:00 AM

Current Temperature: 50.1°F

April's High: Temperature Record 83.2°F - Set on Sun, Apr 22, 2012 - 2:12:00 PM
We are currently 33.1°F Less than this Month's record High

April's Low: Temperature Record 31.4°F - Set on Thu, Apr 5, 2012 - 6:23:00 AM
We are currently 18.7°F More than this Month's record Low

Weather History For Wednesday, April 26, 2017


On this Day - In Weather History ...
Data courtesy of weatherforyou.com
powered by Cumulus v1.9.3 (1059)
Ambient Weather VWS v14.00
Top Contact Website Map Copyright © 2007 - 2017 Foresthillweather.com Never base important decisions on this or any weather information obtained from the Internet